Location: Winnipeg
(49.8830°N, 97.1670°W)
Time: 00:27:46
(UTC-06:00)

ISS - Pass Details

Date: 16 November 2024
Orbit: 411 x 421 km, 51.6° (Epoch: 04 December)

Event Time Altitude Azimuth Distance (km) Brightness Sun altitude
Rises 18:26:44 0° 223° (SW) 2,370 1.0 -16.5°
Reaches altitude 10° 18:28:56 10° 213° (SSW) 1,509 -0.3 -16.9°
Maximum altitude 18:32:01 33° 148° (SSE) 731 -2.8 -17.4°
Enters shadow 18:32:17 33° 137° (SE) 739 -2.8 -17.4°
